Weather History for Greenville/Spartanburg, SC

Change the Weather History Date:

Saturday, February 16, 2013

  Actual Average Record
Temperature  
Mean Temperature 34 °F 46 °F  
Max Temperature 42 °F 57 °F 80 °F (1911)
Min Temperature 26 °F 35 °F 9 °F (1958)
Degree Days  
Heating Degree Days 31 19  
Month to date heating degree days 323 327  
Since 1 July heating degree days 1921 2237  
Cooling Degree Days 0 0  
Month to date cooling degree days 0 0  
Year to date cooling degree days 0 0  
Moisture  
Dew Point 27 °F    
Average Humidity 70    
Maximum Humidity 92    
Minimum Humidity 47    
Precipitation  
Precipitation 0.23 in 0.16 in 2.93 in (1942)
Month to date precipitation 1.49 2.19  
Year to date precipitation 6.76 6.01  
Snow  
Snow 2.00 in 0.10 in 7.00 in (1895)
Month to date snowfall 2.0 0.6  
Since 1 July snowfall 2.0 3.4  
Snow Depth 0.00 in    
Sea Level Pressure  
Sea Level Pressure 29.91 in    
Wind  
Wind Speed 7 mph (North)    
Max Wind Speed 15 mph    
Max Gust Speed 22 mph    
Visibility 9 miles    
Events Fog , Snow , Thunderstorm    
T = Trace of Precipitation, MM = Missing Value Source: NWS Daily Summary

Daily Weather History Graph

Daily Weather History Graph

Search for Another Location

Airport:

Trip Planner

Search our weather history database for the weather conditions in past years. The results will help you decide how hot, cold, wet, or windy it might be!

Date:

Astronomy

Feb. 16, 2013 Rise Set
Actual Time 7:13 AM EST 6:12 PM EST
Civil Twilight 6:47 AM EST 6:38 PM EST
Nautical Twilight 6:17 AM EST 7:08 PM EST
Astronomical Twilight 5:48 AM EST 7:37 PM EST
Moon 10:42 AM EST (2/16) No Moon Set
Length of Visible Light 11h 51m
Length of Day
10h 59m
Waxing Crescent, 39% of the Moon is Illuminated
Feb 16
Waxing Crescent
Feb 17
First Quarter
Feb 25
Full
Mar 4
Last Quarter
Mar 11
New

Hourly Weather History & Observations

Time (EST) Temp. Windchill Dew Point Humidity Pressure Visibility Wind Dir Wind Speed Gust Speed Precip Events Conditions
12:53 AM 41.0 °F 35.8 °F 30.0 °F 65% 29.95 in 10.0 mi NNE 8.1 mph - N/A   Clear
1:53 AM 39.9 °F 33.9 °F 27.0 °F 60% 29.94 in 10.0 mi North 9.2 mph - N/A   Mostly Cloudy
2:53 AM 41.0 °F 35.8 °F 27.0 °F 57% 29.93 in 10.0 mi North 8.1 mph - N/A   Overcast
3:53 AM 41.0 °F 36.4 °F 25.0 °F 53% 29.92 in 10.0 mi NNE 6.9 mph - N/A   Overcast
4:53 AM 41.0 °F 35.8 °F 24.1 °F 51% 29.91 in 10.0 mi NNE 8.1 mph - N/A   Overcast
5:53 AM 39.9 °F 35.8 °F 24.1 °F 53% 29.93 in 10.0 mi NE 5.8 mph - N/A   Overcast
6:43 AM 37.4 °F 33.8 °F 28.4 °F 70% 29.94 in 9.0 mi NNW 4.6 mph - 0.00 in Snow Light Snow
6:53 AM 37.0 °F 31.0 °F 28.0 °F 70% 29.94 in 9.0 mi North 8.1 mph - 0.00 in Snow Light Snow
7:53 AM 39.0 °F - 28.0 °F 65% 29.94 in 10.0 mi Calm Calm - 0.00 in   Overcast
8:00 AM 39.2 °F 35.9 °F 28.4 °F 65% 29.93 in 10.0 mi ENE 4.6 mph - N/A   Overcast
8:53 AM 39.0 °F 35.7 °F 28.9 °F 67% 29.93 in 10.0 mi ESE 4.6 mph - N/A   Overcast
9:53 AM 39.0 °F 35.7 °F 33.1 °F 79% 29.93 in 10.0 mi SE 4.6 mph - N/A   Overcast
10:20 AM 39.2 °F 34.2 °F 33.8 °F 81% 29.91 in 10.0 mi SE 6.9 mph - N/A   Overcast
10:53 AM 39.0 °F 34.8 °F 33.1 °F 79% 29.92 in 10.0 mi East 5.8 mph - N/A   Overcast
11:08 AM 39.2 °F 35.9 °F 33.8 °F 81% 29.91 in 10.0 mi SE 4.6 mph - N/A   Overcast
11:53 AM 41.0 °F 37.1 °F 32.0 °F 70% 29.90 in 10.0 mi ESE 5.8 mph - N/A   Overcast
12:53 PM 39.9 °F 33.4 °F 30.9 °F 70% 29.86 in 10.0 mi ESE 10.4 mph - N/A   Overcast
1:38 PM 41.0 °F 38.0 °F 30.2 °F 65% 29.82 in 10.0 mi NNW 4.6 mph - N/A Thunderstorm Overcast
1:48 PM 41.0 °F 33.5 °F 30.2 °F 65% 29.83 in 10.0 mi North 13.8 mph 18.4 mph N/A   Overcast
1:51 PM 37.4 °F 28.9 °F 30.2 °F 75% 29.83 in 1.0 mi North 13.8 mph - N/A   Haze
1:53 PM 36.0 °F 27.1 °F 32.0 °F 86% 29.84 in 1.0 mi North 13.8 mph - 0.00 in Snow Light Snow
1:59 PM 33.8 °F 25.8 °F 32.0 °F 93% 29.84 in 0.2 mi North 10.4 mph 19.6 mph 0.01 in Fog , Snow Heavy Snow
2:53 PM 32.0 °F 27.5 °F 30.9 °F 96% 29.85 in 1.2 mi Variable 4.6 mph - 0.23 in Snow Light Snow
2:57 PM 33.8 °F 27.7 °F 30.2 °F 87% 29.84 in 2.0 mi North 6.9 mph - 0.00 in Snow Light Snow
3:05 PM 33.8 °F 29.6 °F 30.2 °F 87% 29.84 in 9.0 mi North 4.6 mph - 0.00 in Snow Light Snow
3:21 PM 33.8 °F 29.6 °F 28.4 °F 81% 29.83 in 10.0 mi North 4.6 mph - 0.00 in   Overcast
3:53 PM 33.1 °F 30.0 °F 32.0 °F 96% 29.85 in 10.0 mi WSW 3.5 mph - 0.00 in   Overcast
4:53 PM 37.0 °F 29.8 °F 26.1 °F 65% 29.86 in 10.0 mi NNW 10.4 mph 20.7 mph N/A   Mostly Cloudy
5:53 PM 35.1 °F 27.9 °F 19.0 °F 52% 29.89 in 10.0 mi NNW 9.2 mph 19.6 mph N/A   Overcast
6:53 PM 32.0 °F 23.6 °F 18.0 °F 56% 29.93 in 10.0 mi North 10.4 mph 16.1 mph N/A   Partly Cloudy
7:53 PM 30.0 °F 22.4 °F 16.0 °F 56% 29.97 in 10.0 mi NNW 8.1 mph - N/A   Clear
8:53 PM 30.9 °F 23.5 °F 15.1 °F 52% 29.99 in 10.0 mi NNW 8.1 mph - N/A   Clear
9:53 PM 30.9 °F 24.3 °F 12.9 °F 47% 30.02 in 10.0 mi NNW 6.9 mph - N/A   Clear
10:53 PM 28.0 °F 22.8 °F 14.0 °F 56% 30.04 in 10.0 mi NNW 4.6 mph - N/A   Clear
11:53 PM 28.0 °F 21.7 °F 14.0 °F 56% 30.03 in 10.0 mi WNW 5.8 mph - N/A   Clear